Home > Weather > Philipsburg > Past weeks

Flag for Sint Maarten Past Weather in Philipsburg, Sint Maarten — Yesterday and Last 2 Weeks

Now
82 °F

Passing clouds.


Feels Like: 88 °F
Forecast: 82 / 88 °F
Wind: 13 mph from East

Location: Juliana Airport - Saint Maarten

Current Time: Jul 30, 2016 at 3:32:11 AM

Latest Report: Jul 30, 2016 at 3:00 AM


Visibility: N/A

Pressure: 29.98 "Hg

Humidity: 74%

Dew Point: 73 °F

Location of PhilipsburgLocation

Past Weather in Philipsburg — Graph

°F

Philipsburg Temperature Yesterday

Maximum temperature yesterday: 88 °F (at 11:00 AM)
Minimum temperature yesterday: 81 °F (at 5:00 AM)
Average temperature yesterday: 85 °F

High & Low Weather Summary for the Past Weeks

 TemperatureHumidityPressure
High90 °F (Jul 17, 1:00 PM)94% (Jul 20, 5:00 AM)30.07 "Hg (Jul 20, 5:00 AM)
Low77 °F (Jul 23, 9:00 PM)55% (Jul 22, 2:00 PM)29.95 "Hg (Jul 15, 4:00 PM)
Average84 °F76%30.01 "Hg
* Reported Jul 15 2:00 AM — Jul 30 2:00 AM, Philipsburg, Weather by CustomWeather, © 2016

Note: Actual official high and low records may vary slightly from our data, if they occured in-between our weather recording intervals... More about our weather records

Advertising

Philipsburg Weather History for the Previous 24 Hours

Scroll right to see more
 ConditionsComfort  
Time TempWeatherWind HumidityBarometerVisibility
2:00 AM
Sat, Jul 30
82 °FPassing clouds.13 mph74%29.98 "HgN/A
1:00 AM82 °FPassing clouds.15 mph79%30.01 "HgN/A
12:00 AM82 °FPassing clouds.14 mph79%30.04 "HgN/A
11:00 PM
Fri, Jul 29
84 °FPassing clouds.14 mph74%30.04 "HgN/A
10:00 PM84 °FPassing clouds.20 mph74%30.04 "HgN/A
9:00 PM84 °FPassing clouds.15 mph74%30.04 "HgN/A
8:00 PM84 °FPassing clouds.16 mph74%30.01 "HgN/A
7:00 PM84 °FPassing clouds.13 mph74%29.98 "HgN/A
6:00 PM84 °FScattered clouds.14 mph79%29.98 "HgN/A
5:00 PM86 °FScattered clouds.13 mph75%29.98 "HgN/A
4:00 PM88 °FScattered clouds.15 mph66%29.95 "HgN/A
3:00 PM88 °FPassing clouds.14 mph66%29.98 "HgN/A
2:00 PM88 °FPassing clouds.16 mph62%29.98 "HgN/A
1:00 PM88 °FPassing clouds.15 mph62%29.98 "HgN/A
12:00 PM88 °FPassing clouds.15 mph62%30.01 "HgN/A
11:00 AM88 °FPassing clouds.16 mph66%30.01 "HgN/A
10:00 AM86 °FPassing clouds.18 mph66%30.01 "HgN/A
9:00 AM86 °FPassing clouds.17 mph66%30.01 "HgN/A
8:00 AM84 °FScattered clouds.13 mph79%30.01 "HgN/A
7:00 AM84 °FPassing clouds.14 mph79%30.01 "HgN/A
6:00 AM82 °FPassing clouds.13 mph79%29.98 "HgN/A
5:00 AM81 °FSprinkles. Passing clouds.10 mph89%29.98 "HgN/A
4:00 AM82 °FPassing clouds.14 mph79%29.98 "HgN/A
3:00 AM82 °FPassing clouds.14 mph84%29.98 "HgN/A
Weather by CustomWeather, © 2016

See weather overviewHow to use our weather pages